Wetbulb
64.31 60.97 60.94 61.83 55.18 54.43 49.88 49.62 51.86 51.87 53.43 57.12 57.02 55.95 55.85 57.26 54.59 53.07 66.19 68.73 69.07 69.44 70.92 71.65 71.42 71.46 71.34 71.56 71.46 71.25 70.92 69.63 68.79 68.19 67.73 67.54 67.41 66.75 66.76 66.91 67.93 67.81 67.17 67.66 66.62 66.12 66.13 65.70 65.79
60.63 59.00 61.93 60.43 52.12 47.94 50.42 51.79 49.84 53.25 57.38 59.55 58.88 58.07 56.80 55.62 62.06 62.44 64.57 68.26 69.26 69.84 70.81 71.46 70.45 71.43 71.27 71.07 70.85 70.81 70.99 69.80 68.60 67.72 67.78 67.04 67.06 66.67 66.61 66.88 67.80 66.95 67.62 67.05 66.53 66.03 65.94 65.64 65.91
59.51 58.56 58.72 56.91 52.97 48.19 49.64 51.63 52.01 55.49 58.55 58.45 58.15 60.09 58.65 58.12 62.65 63.49 67.58 69.10 69.40 69.61 70.72 71.23 70.37 71.19 70.76 70.85 70.74 70.75 70.69 70.27 68.61 67.73 67.52 67.05 66.71 66.53 66.13 66.73 67.43 66.87 67.22 66.28 66.42 65.90 65.83 65.81 65.69
58.82 60.12 57.68 52.43 49.96 51.83 52.11 52.82 52.96 56.37 57.14 58.27 59.65 57.04 60.94 63.95 63.71 66.53 68.75 69.29 69.23 69.18 70.50 69.94 70.75 70.85 70.59 70.61 70.48 70.56 70.33 69.73 68.81 67.86 67.19 67.09 66.57 66.34 65.83 66.45 66.53 66.30 66.20 66.84 66.13 65.57 65.53 65.12 64.39
59.13 57.46 52.74 50.67 50.42 51.25 53.13 52.82 54.76 55.81 56.52 57.39 59.02 56.01 58.86 63.89 66.29 68.06 67.76 69.09 68.60 68.34 69.74 70.60 70.08 70.73 70.72 70.67 70.71 70.47 70.60 70.12 68.87 67.87 67.11 66.70 66.22 65.99 65.63 66.14 65.93 65.94 66.08 66.23 66.11 66.07 65.15 64.35 63.99
56.66 52.46 48.75 48.45 51.13 54.11 52.92 54.48 55.17 56.35 56.04 57.53 57.08 57.22 59.30 64.76 65.60 66.11 68.15 68.90 68.73 67.92 68.93 69.97 67.42 68.41 69.53 70.38 70.52 70.14 70.27 70.05 69.62 68.41 66.90 66.35 65.86 65.75 65.68 65.45 65.65 65.48 65.62 65.65 65.76 65.63 65.49 64.19 63.52
54.28 52.71 48.78 48.18 48.63 49.94 51.88 55.47 54.62 55.59 55.66 56.71 59.38 55.27 59.64 62.92 65.69 66.24 68.04 68.83 68.26 68.10 68.31 69.51 69.51 67.92 66.58 67.90 68.43 69.28 69.32 69.08 68.87 68.25 67.70 67.14 66.41 66.23 65.93 65.86 65.64 65.33 65.25 65.44 65.04 64.74 64.46 64.49 63.34
55.79 52.58 48.09 48.92 48.16 48.66 50.92 53.71 53.79 55.48 55.23 59.74 60.94 54.97 55.47 63.09 64.96 66.29 67.53 67.88 67.43 66.93 67.23 68.07 68.75 68.56 68.69 68.62 65.18 66.20 67.36 67.69 67.51 66.92 65.60 64.67 64.64 64.70 64.75 64.44 65.55 65.19 65.04 64.72 64.24 64.00 63.92 64.13 62.88
53.75 49.67 46.72 48.12 48.33 50.08 51.28 51.68 54.44 56.44 57.09 58.67 60.00 58.65 60.59 65.14 64.78 64.58 65.26 65.45 65.88 65.31 65.94 66.98 67.24 67.57 67.58 67.66 66.21 64.61 64.96 65.36 65.03 64.43 62.41 62.92 65.43 65.17 64.45 62.93 64.46 64.84 64.61 63.56 62.92 62.87 62.81 63.44 61.68
53.16 48.60 48.15 51.27 51.26 49.26 49.78 50.62 53.24 54.41 55.76 56.84 58.12 61.02 62.21 63.97 63.50 62.88 62.63 62.29 63.42 63.80 64.71 65.97 66.23 66.24 66.72 66.34 67.99 68.82 68.58 68.26 67.42 66.62 65.75 65.12 64.88 64.74 64.04 61.77 62.06 63.10 63.25 63.31 62.82 61.96 60.37 61.13 63.34
52.72 49.04 50.19 51.10 51.54 52.50 50.50 50.27 52.89 53.68 52.72 56.76 56.94 59.11 61.54 61.60 62.25 62.44 62.43 62.85 63.13 64.47 64.67 65.68 66.35 66.33 66.08 65.96 66.93 67.70 67.87 67.46 67.02 66.41 65.56 64.74 64.14 63.90 63.99 64.04 63.00 63.08 59.68 62.67 62.59 62.41 63.30 62.31 63.16
49.90 52.79 51.85 52.25 53.11 53.05 51.84 52.98 49.31 52.80 55.42 55.06 58.54 60.08 61.62 60.70 61.30 61.77 61.32 62.32 62.82 64.66 64.65 65.38 66.36 66.07 65.77 65.97 65.85 66.46 66.60 66.54 65.90 65.75 65.30 64.42 63.37 63.07 62.94 62.80 62.74 62.67 62.34 62.59 62.98 63.04 62.76 62.36 62.38
50.57 51.32 51.75 52.83 52.95 53.04 53.64 52.26 51.79 50.48 54.11 55.61 55.53 58.86 60.85 61.93 62.47 63.19 62.99 63.42 62.91 64.09 64.66 65.07 65.24 66.34 65.85 65.47 65.55 65.66 65.58 65.51 65.73 65.38 65.02 64.48 62.95 62.33 62.27 62.36 62.18 61.77 61.98 62.29 62.55 62.42 62.09 61.91 61.93
51.26 50.49 51.12 51.68 52.29 52.34 50.70 52.88 50.53 52.98 52.18 53.29 55.40 56.72 59.63 61.33 62.27 62.19 61.90 62.04 64.28 64.43 64.56 65.09 64.82 65.08 66.35 65.45 65.27 65.25 65.60 65.43 65.28 65.12 64.77 64.09 62.88 62.29 61.78 61.44 61.35 61.36 61.53 62.36 62.66 62.33 62.03 61.92 62.01
51.34 48.33 50.25 51.13 51.13 50.34 51.11 48.85 49.03 55.17 53.52 52.89 53.68 55.93 57.91 60.03 62.28 62.28 62.94 62.18 64.69 64.58 65.08 64.86 65.12 64.65 66.18 65.58 65.56 65.17 65.17 64.96 64.57 64.34 64.38 63.61 62.86 63.18 61.57 60.92 60.57 60.91 61.43 62.20 62.47 62.52 62.40 62.02 61.85
47.79 47.76 44.05 48.47 50.38 51.09 49.05 43.71 52.65 54.72 52.99 53.69 55.17 55.17 56.62 58.59 60.37 62.33 63.50 64.17 65.33 65.31 64.84 65.43 65.03 64.23 65.31 65.72 65.74 65.42 65.16 64.77 64.67 64.49 64.09 63.49 63.27 63.90 62.98 61.93 60.71 61.07 61.30 62.06 62.46 62.31 61.62 61.55 61.53
45.94 41.50 42.57 44.16 49.32 49.48 48.58 45.21 50.58 53.14 53.60 53.82 55.17 55.04 55.11 56.81 59.06 60.73 62.45 63.56 64.37 65.40 65.49 64.90 65.29 64.99 64.96 65.73 65.95 65.80 65.42 64.74 64.61 64.59 64.09 63.71 63.52 63.96 63.72 63.13 62.95 62.09 61.64 61.74 62.07 62.09 61.91 61.12 60.99
40.87 40.78 41.33 42.12 44.83 46.15 46.55 46.14 49.67 51.51 50.84 51.66 52.67 53.69 53.91 54.42 56.37 59.55 61.22 62.49 63.53 64.29 65.46 65.91 65.75 65.75 65.75 65.43 65.74 65.48 65.13 64.77 64.82 64.11 63.81 63.70 63.45 63.59 63.51 63.34 63.13 62.96 61.90 61.64 61.72 61.49 61.75 61.30 60.90
44.11 42.82 41.41 43.19 45.16 44.24 44.75 44.84 47.11 49.75 50.09 50.44 51.92 53.64 54.74 55.41 57.18 57.09 59.35 61.55 62.29 63.29 63.82 64.79 65.20 65.64 65.71 64.71 63.78 62.77 62.13 63.77 63.72 64.10 63.86 63.38 63.36 63.29 63.03 62.81 62.71 62.85 61.66 61.27 61.28 61.14 60.74 60.15 59.97
43.07 41.19 40.92 43.09 44.49 44.49 44.49 43.93 47.33 49.06 49.49 50.53 50.74 51.19 52.04 53.26 54.62 55.76 56.69 58.67 60.54 61.67 62.65 63.60 64.37 65.36 65.35 64.96 64.64 64.32 63.95 64.36 64.36 64.15 63.99 63.99 63.28 63.12 62.57 62.50 62.23 62.32 61.39 60.94 60.43 60.28 59.55 59.65 59.71
42.76 40.94 40.64 40.23 43.79 45.28 42.79 41.55 44.44 48.10 49.28 50.29 51.17 52.41 52.86 52.79 52.79 54.20 55.71 56.94 59.42 60.19 61.66 62.43 63.58 64.51 65.25 64.83 65.06 64.64 64.69 64.31 63.44 63.81 63.47 64.00 63.83 63.33 63.14 62.25 62.68 62.14 61.79 60.95 60.31 60.24 59.40 58.47 58.79
38.63 44.43 43.20 40.62 39.94 35.72 42.87 34.02 42.27 45.42 46.11 47.93 49.71 51.32 51.99 52.99 53.72 54.11 54.74 55.63 56.60 58.96 61.17 62.18 63.16 63.61 64.52 65.21 64.03 62.90 61.18 60.58 62.36 63.33 63.80 63.89 63.64 63.04 63.01 62.73 62.46 62.63 62.31 61.21 61.53 61.08 60.46 59.94 57.73
41.22 45.20 42.89 42.06 40.36 37.72 38.53 33.79 39.85 43.39 42.61 45.65 48.65 50.49 52.08 53.20 53.75 53.78 54.52 55.33 56.44 57.70 59.65 61.42 62.27 62.86 63.68 64.36 64.36 63.43 61.99 62.53 63.39 63.63 63.39 63.14 63.28 62.92 62.92 62.62 62.56 62.33 62.47 62.10 61.75 60.80 60.51 60.77 60.11
44.26 42.44 41.12 40.43 39.30 31.92 37.22 36.54 37.61 41.49 43.25 44.95 48.06 49.93 51.14 52.13 52.90 53.73 54.79 55.21 55.35 56.76 56.55 59.32 60.50 61.34 62.75 63.37 63.93 63.82 62.68 62.55 62.70 62.69 62.36 62.67 62.77 62.77 62.50 62.44 62.54 62.32 62.15 62.04 61.75 61.87 60.78 60.51 60.27
43.10 38.18 32.14 30.50 29.28 29.40 36.48 35.29 38.47 44.12 45.44 45.95 47.28 49.24 51.17 52.19 51.83 52.48 52.42 53.59 54.93 55.46 55.95 56.42 58.54 59.13 61.37 62.18 62.92 63.74 63.93 63.29 62.91 62.99 62.75 62.18 61.79 61.84 61.57 62.02 61.94 62.01 62.15 62.15 61.64 61.31 61.03 60.59 60.06
40.34 37.86 32.30 24.74 26.35 30.52 33.86 31.80 38.25 44.87 46.83 48.21 48.20 48.91 49.55 50.06 51.39 52.05 52.80 52.85 53.23 54.23 55.29 56.03 56.63 57.70 59.67 60.96 61.83 63.16 63.51 63.98 63.89 63.65 63.75 63.12 62.80 62.11 62.28 62.09 61.88 61.74 61.80 61.52 61.19 60.77 60.92 60.96 60.61
38.72 35.86 40.93 32.87 28.09 29.74 34.09 37.97 42.36 44.79 44.49 45.64 46.72 47.73 48.28 49.49 50.66 49.53 49.59 49.95 50.33 51.53 53.14 54.61 55.52 57.18 58.85 59.86 61.13 61.67 62.85 62.84 63.18 63.73 64.06 63.98 63.02 62.69 62.04 61.77 61.15 61.24 61.18 60.93 60.70 60.47 59.67 59.90 60.03
41.25 42.70 33.43 34.68 25.93 24.08 31.37 32.96 34.82 40.40 42.85 45.65 44.78 45.83 47.07 46.97 47.68 48.14 48.03 47.95 48.24 49.25 50.63 52.11 53.95 54.88 57.58 59.45 60.45 60.91 61.58 62.34 63.15 63.75 63.28 63.55 63.75 62.75 62.04 61.36 60.70 60.79 60.86 60.55 60.23 59.72 59.39 58.61 58.48
36.90 36.77 37.14 36.75 34.28 27.51 26.12 32.51 41.71 42.75 44.55 43.30 43.72 44.68 45.76 47.41 48.02 47.78 47.28 48.61 47.91 48.07 48.63 48.80 50.01 52.44 54.58 56.90 59.17 60.27 60.89 61.38 62.07 62.46 63.12 63.25 63.48 63.13 61.91 61.37 60.92 60.40 60.28 60.31 59.49 58.81 58.73 57.61 57.44
41.22 38.12 37.38 32.08 28.92 32.60 30.86 32.49 42.80 44.79 42.89 42.67 44.36 46.96 47.76 46.94 47.22 46.83 47.37 48.08 48.07 47.92 47.37 47.67 48.49 51.67 53.02 55.69 57.82 59.06 60.03 60.60 60.87 61.30 61.74 62.57 61.83 62.26 61.93 61.39 60.59 60.42 60.13 60.21 58.74 57.91 57.64 57.25 56.71
MSLP
1016.78 1016.18 1015.75 1014.91 1014.60 1014.29 1014.27 1015.11 1015.69 1015.78 1016.12 1016.82 1016.99 1016.95 1016.86 1017.50 1017.68 1018.66 1019.70 1019.67 1019.71 1020.05 1020.39 1020.86 1021.12 1021.32 1021.44 1021.55 1021.66 1021.70 1021.79 1021.90 1022.04 1022.09 1022.10 1022.16 1022.31 1022.37 1022.40 1022.42 1022.51 1022.62 1022.63 1022.65 1022.80 1022.96 1023.11 1023.15 1023.16
1017.05 1016.14 1015.36 1014.79 1014.38 1014.07 1014.04 1015.14 1015.69 1016.06 1016.73 1017.21 1017.42 1017.48 1017.46 1017.67 1018.63 1019.40 1019.82 1020.02 1019.82 1020.11 1020.35 1020.76 1021.32 1021.49 1021.63 1021.77 1021.86 1021.96 1022.00 1022.16 1022.26 1022.35 1022.45 1022.44 1022.61 1022.66 1022.74 1022.75 1022.85 1022.91 1022.95 1023.02 1023.17 1023.35 1023.46 1023.42 1023.49
1016.87 1016.49 1015.34 1014.88 1014.78 1014.37 1014.52 1015.24 1015.81 1016.78 1017.34 1017.40 1017.47 1017.90 1017.89 1018.11 1018.87 1019.46 1019.63 1019.79 1019.99 1020.32 1020.46 1021.06 1021.51 1021.69 1021.88 1021.96 1022.05 1022.13 1022.23 1022.35 1022.53 1022.62 1022.72 1022.84 1022.89 1023.04 1023.10 1023.05 1023.13 1023.21 1023.17 1023.18 1023.40 1023.61 1023.72 1023.78 1023.81
1016.78 1016.11 1015.96 1015.34 1014.92 1015.25 1015.31 1015.61 1016.19 1016.92 1017.42 1017.64 1017.63 1017.65 1018.51 1018.86 1018.87 1019.34 1019.81 1019.87 1020.03 1020.43 1020.62 1021.39 1021.61 1021.81 1022.05 1022.18 1022.24 1022.35 1022.43 1022.53 1022.68 1022.85 1022.98 1023.12 1023.21 1023.40 1023.44 1023.39 1023.37 1023.44 1023.45 1023.57 1023.62 1023.83 1024.04 1024.08 1024.11
1017.18 1016.68 1015.92 1015.60 1015.49 1015.79 1015.82 1016.09 1016.35 1016.66 1016.99 1017.23 1017.73 1017.67 1018.14 1019.09 1019.36 1019.58 1020.09 1019.95 1020.05 1020.41 1020.73 1021.17 1021.64 1021.90 1022.10 1022.26 1022.35 1022.50 1022.56 1022.65 1022.87 1023.09 1023.20 1023.32 1023.50 1023.63 1023.74 1023.73 1023.72 1023.81 1023.79 1023.84 1023.90 1024.12 1024.25 1024.31 1024.34
1017.09 1017.37 1016.70 1015.78 1015.48 1015.86 1016.15 1016.22 1016.46 1016.54 1016.95 1017.35 1017.60 1017.72 1018.28 1019.18 1019.48 1020.03 1020.12 1019.94 1020.07 1020.46 1020.87 1021.10 1021.66 1021.92 1022.19 1022.38 1022.51 1022.66 1022.75 1022.92 1023.06 1023.31 1023.49 1023.65 1023.86 1023.97 1024.03 1024.08 1024.07 1024.10 1024.14 1024.13 1024.26 1024.31 1024.39 1024.55 1024.60
1017.23 1017.51 1017.14 1016.82 1016.12 1016.17 1016.31 1016.67 1016.54 1016.58 1016.83 1016.98 1017.34 1017.37 1018.32 1019.08 1019.61 1020.16 1020.10 1019.90 1020.26 1020.56 1020.97 1021.09 1021.31 1021.78 1022.31 1022.48 1022.76 1022.79 1022.89 1023.11 1023.31 1023.55 1023.75 1023.97 1024.15 1024.27 1024.36 1024.44 1024.39 1024.42 1024.45 1024.53 1024.59 1024.62 1024.66 1024.72 1024.80
1018.00 1017.78 1017.39 1017.14 1016.34 1016.40 1016.92 1017.11 1017.17 1016.82 1016.88 1017.63 1017.51 1017.02 1017.57 1018.38 1019.86 1020.35 1020.21 1020.35 1020.51 1020.75 1020.90 1021.12 1021.31 1021.57 1021.91 1022.24 1022.84 1022.90 1022.97 1023.18 1023.40 1023.69 1023.97 1024.22 1024.35 1024.53 1024.63 1024.64 1024.67 1024.65 1024.70 1024.77 1024.80 1024.79 1024.80 1024.82 1024.95
1018.76 1017.80 1017.24 1017.32 1017.01 1016.82 1017.33 1017.17 1017.28 1017.52 1017.30 1017.58 1017.57 1017.60 1018.24 1018.70 1019.95 1020.35 1020.46 1020.58 1020.62 1020.95 1020.86 1021.11 1021.30 1021.54 1021.74 1022.12 1022.61 1023.04 1023.18 1023.36 1023.60 1023.80 1024.01 1024.22 1024.02 1024.35 1024.56 1024.76 1024.84 1024.86 1024.93 1024.98 1024.98 1025.01 1025.07 1025.06 1025.19
1018.76 1018.25 1017.47 1017.81 1017.82 1017.60 1017.66 1017.54 1017.29 1017.34 1017.15 1017.20 1017.45 1018.11 1018.69 1019.39 1019.83 1020.01 1020.28 1020.50 1020.71 1021.03 1021.05 1021.00 1021.29 1021.50 1021.69 1022.09 1022.42 1022.58 1022.96 1023.19 1023.34 1023.59 1023.84 1023.68 1023.90 1024.15 1024.34 1024.83 1025.09 1025.12 1025.12 1025.08 1025.09 1025.14 1025.18 1024.90 1024.56
1019.18 1018.34 1018.44 1018.14 1018.39 1018.35 1018.07 1017.74 1017.71 1017.13 1016.80 1016.31 1016.48 1017.38 1018.65 1019.38 1019.74 1019.93 1020.12 1020.23 1020.40 1020.67 1021.24 1021.18 1021.18 1021.42 1021.62 1021.87 1022.17 1022.45 1022.74 1023.03 1023.29 1023.49 1023.64 1023.75 1023.92 1024.27 1024.30 1024.47 1024.71 1024.81 1025.10 1024.68 1024.82 1024.88 1024.57 1024.57 1024.43
1019.43 1018.97 1018.93 1018.83 1018.85 1018.55 1018.19 1018.19 1017.55 1017.10 1016.41 1016.97 1016.81 1017.02 1018.35 1018.99 1019.31 1019.52 1019.85 1020.01 1020.26 1020.20 1020.69 1020.99 1021.06 1021.32 1021.43 1021.63 1021.98 1022.16 1022.51 1022.89 1023.12 1023.34 1023.57 1023.70 1023.79 1023.94 1024.00 1024.01 1024.11 1024.32 1024.36 1024.45 1024.50 1024.44 1024.57 1024.58 1024.63
1019.70 1019.29 1019.29 1019.21 1019.30 1018.76 1018.48 1018.07 1017.62 1016.83 1016.69 1016.94 1017.28 1017.58 1017.86 1018.38 1018.74 1019.17 1019.69 1019.95 1020.15 1020.03 1020.25 1020.72 1021.10 1021.08 1021.27 1021.43 1021.61 1021.85 1022.12 1022.58 1022.69 1023.02 1023.30 1023.36 1023.44 1023.63 1023.77 1023.89 1024.01 1024.05 1024.18 1024.14 1024.21 1024.24 1024.37 1024.48 1024.53
1019.68 1019.69 1019.47 1019.34 1019.01 1018.98 1018.44 1017.63 1017.60 1016.48 1016.75 1016.70 1017.03 1017.01 1017.31 1017.78 1018.15 1018.83 1019.28 1019.49 1019.59 1019.71 1019.81 1020.21 1020.79 1021.05 1020.90 1021.24 1021.28 1021.50 1021.71 1022.01 1022.37 1022.57 1022.75 1023.04 1023.06 1023.19 1023.43 1023.67 1023.78 1023.81 1023.81 1023.74 1023.76 1023.85 1023.98 1024.06 1024.19
1020.24 1020.04 1019.40 1019.09 1018.94 1018.70 1018.53 1017.34 1016.58 1016.24 1016.69 1016.39 1016.37 1016.59 1016.91 1017.24 1017.65 1017.90 1018.50 1018.95 1018.81 1019.23 1019.43 1019.77 1019.92 1020.60 1020.48 1020.80 1020.99 1021.06 1021.32 1021.64 1021.89 1022.08 1022.42 1022.69 1022.90 1022.94 1023.06 1023.13 1023.33 1023.45 1023.64 1023.70 1023.74 1023.82 1023.88 1023.84 1023.92
1020.30 1020.22 1018.98 1018.53 1018.75 1018.53 1018.61 1016.17 1015.72 1016.03 1016.14 1015.87 1015.77 1015.90 1016.29 1016.47 1016.98 1017.37 1017.58 1017.83 1018.12 1018.65 1019.02 1019.26 1019.53 1019.93 1019.97 1019.97 1020.36 1020.66 1020.74 1021.04 1021.36 1021.58 1021.86 1022.27 1022.53 1022.57 1022.73 1022.82 1022.90 1023.03 1023.34 1023.43 1023.35 1023.32 1023.44 1023.54 1023.62
1020.00 1018.87 1018.84 1018.78 1018.75 1018.48 1018.23 1016.55 1016.13 1016.20 1015.80 1015.45 1015.31 1015.32 1015.51 1015.75 1016.23 1016.61 1017.09 1017.27 1017.49 1017.83 1018.31 1018.78 1019.10 1019.28 1019.54 1019.52 1019.69 1019.96 1020.28 1020.49 1020.64 1020.98 1021.24 1021.59 1021.94 1022.25 1022.27 1022.25 1022.41 1022.79 1022.97 1023.02 1022.95 1022.96 1023.10 1023.13 1023.28
1018.66 1019.26 1019.51 1018.70 1019.16 1018.79 1018.10 1017.06 1016.28 1016.23 1016.27 1015.66 1015.25 1015.06 1015.11 1015.20 1015.22 1015.48 1016.34 1016.62 1017.00 1017.29 1017.45 1017.75 1018.25 1018.58 1018.81 1019.08 1019.28 1019.43 1019.68 1019.94 1020.02 1020.33 1020.53 1020.81 1021.07 1021.44 1021.76 1021.84 1022.04 1022.38 1022.42 1022.51 1022.62 1022.70 1022.83 1023.01 1023.00
1019.08 1019.09 1019.01 1019.32 1019.50 1019.11 1017.95 1017.29 1015.94 1015.98 1015.82 1015.30 1014.94 1014.61 1014.39 1014.33 1014.30 1014.57 1015.32 1015.87 1016.35 1016.73 1016.81 1016.80 1016.99 1017.40 1018.02 1018.33 1018.54 1018.89 1018.92 1019.12 1019.33 1019.55 1019.87 1020.05 1020.29 1020.61 1021.04 1021.25 1021.45 1021.69 1021.87 1021.93 1022.21 1022.47 1022.63 1022.83 1023.10
1019.47 1019.23 1019.40 1019.77 1019.91 1019.41 1018.20 1017.14 1015.75 1015.52 1015.02 1014.65 1014.25 1013.82 1013.44 1013.46 1013.53 1013.84 1014.09 1014.75 1015.21 1015.36 1015.77 1016.01 1016.16 1016.43 1016.91 1017.32 1017.65 1017.98 1018.20 1018.19 1018.20 1018.61 1018.80 1019.07 1019.46 1019.78 1020.15 1020.46 1020.56 1020.81 1021.25 1021.51 1021.73 1021.98 1022.07 1022.28 1022.59
1019.32 1019.33 1019.65 1019.82 1020.01 1019.43 1018.58 1016.34 1015.23 1013.96 1014.06 1013.83 1013.53 1013.06 1012.77 1012.54 1012.66 1012.86 1013.02 1013.35 1013.78 1014.10 1014.37 1014.73 1015.02 1015.17 1015.51 1016.27 1016.88 1017.27 1017.35 1017.42 1017.51 1017.59 1017.77 1017.79 1018.25 1018.71 1019.14 1019.33 1019.56 1019.98 1020.36 1020.56 1020.95 1021.22 1021.43 1021.42 1021.86
1019.30 1019.95 1020.23 1020.40 1020.45 1019.52 1019.12 1016.08 1014.37 1013.60 1013.41 1013.25 1012.89 1012.41 1012.10 1011.89 1012.06 1012.30 1012.28 1012.34 1012.46 1012.67 1013.22 1013.42 1013.68 1014.16 1014.62 1014.89 1015.51 1016.00 1016.19 1016.37 1016.25 1016.46 1016.78 1016.94 1017.25 1017.54 1018.02 1018.36 1018.66 1018.94 1019.22 1019.46 1019.67 1020.04 1020.37 1020.84 1020.83
1019.53 1019.80 1020.30 1020.58 1020.53 1020.31 1019.21 1018.61 1014.26 1013.90 1013.06 1012.67 1012.11 1011.66 1011.31 1011.27 1011.45 1011.63 1011.68 1011.77 1011.90 1012.11 1012.38 1012.62 1012.77 1013.03 1013.52 1014.11 1014.19 1014.42 1014.92 1014.96 1015.24 1015.59 1015.79 1016.07 1016.25 1016.60 1016.79 1017.18 1017.49 1017.89 1018.09 1018.29 1018.53 1018.95 1019.24 1019.50 1019.81
1019.99 1020.28 1020.98 1021.17 1020.80 1019.83 1018.17 1017.55 1013.47 1012.63 1012.20 1012.07 1011.66 1011.27 1011.08 1011.02 1011.36 1011.40 1011.59 1011.69 1011.67 1011.71 1011.80 1011.85 1011.93 1012.06 1012.43 1012.86 1013.18 1013.11 1013.19 1013.44 1013.99 1014.40 1014.66 1015.03 1015.47 1015.75 1015.94 1016.27 1016.56 1016.64 1016.87 1017.11 1017.43 1017.78 1018.18 1018.46 1018.69
1020.09 1020.15 1020.92 1020.92 1020.78 1018.52 1017.86 1016.83 1013.51 1012.34 1012.25 1012.04 1011.50 1011.16 1010.86 1011.15 1011.46 1011.51 1011.55 1011.27 1011.14 1011.02 1011.06 1011.03 1011.08 1011.00 1011.32 1011.65 1011.81 1012.18 1012.22 1012.44 1012.48 1012.87 1013.38 1013.93 1014.30 1014.64 1014.85 1015.33 1015.64 1015.83 1015.97 1016.20 1016.62 1017.06 1017.29 1017.55 1017.77
1019.42 1019.57 1019.27 1019.22 1019.61 1018.45 1018.03 1015.18 1012.39 1012.07 1011.79 1011.50 1011.49 1011.41 1011.30 1011.53 1011.77 1011.53 1011.53 1011.41 1011.06 1010.81 1010.61 1010.38 1010.23 1010.07 1010.18 1010.41 1010.65 1010.97 1011.27 1011.49 1011.61 1011.76 1012.11 1012.54 1012.92 1013.35 1013.90 1014.30 1014.66 1014.84 1015.06 1015.43 1015.82 1016.28 1016.49 1016.74 1016.86
1019.08 1019.06 1019.06 1019.48 1020.46 1019.42 1016.64 1014.04 1012.62 1011.59 1011.05 1011.34 1011.11 1011.63 1011.70 1011.75 1011.62 1011.66 1011.55 1011.28 1010.83 1010.38 1010.07 1009.94 1009.66 1009.50 1009.51 1009.55 1009.89 1010.25 1010.36 1010.64 1010.49 1010.74 1011.07 1011.34 1012.07 1012.38 1012.97 1013.42 1013.79 1014.10 1014.49 1014.83 1015.20 1015.44 1015.68 1015.95 1016.14
1018.10 1018.75 1019.48 1019.78 1019.67 1018.52 1015.73 1014.10 1012.06 1011.41 1010.57 1010.70 1011.46 1011.61 1011.72 1011.95 1011.78 1011.54 1011.52 1011.16 1010.66 1010.32 1009.98 1009.65 1009.42 1009.19 1009.13 1009.16 1009.30 1009.55 1009.77 1009.97 1010.07 1010.20 1010.39 1010.53 1010.50 1011.16 1011.90 1012.51 1013.05 1013.37 1013.71 1014.03 1014.39 1014.60 1014.91 1015.13 1015.21
1018.94 1018.81 1019.20 1019.23 1019.44 1018.20 1016.18 1012.98 1011.82 1010.96 1011.03 1011.81 1012.13 1012.11 1011.91 1011.86 1011.65 1011.45 1011.36 1010.93 1010.51 1010.24 1009.82 1009.50 1009.24 1009.08 1008.98 1008.88 1008.82 1008.89 1009.05 1009.26 1009.48 1009.58 1009.66 1010.00 1010.44 1010.66 1010.82 1011.34 1011.96 1012.50 1012.80 1013.15 1013.57 1013.72 1013.96 1014.21 1014.41
1017.97 1018.06 1018.50 1018.09 1019.05 1018.65 1017.32 1012.70 1011.94 1011.60 1011.87 1012.24 1012.15 1011.71 1011.56 1011.81 1011.73 1011.61 1011.18 1010.63 1010.08 1009.85 1009.69 1009.39 1009.18 1008.96 1008.73 1008.62 1008.61 1008.60 1008.67 1008.80 1008.91 1009.03 1009.23 1009.54 1009.90 1010.23 1010.54 1010.91 1011.24 1011.48 1011.79 1012.23 1012.66 1013.01 1013.29 1013.41 1013.66
Wind_Speed
16 11 4 3 5 3 2 1 2 3 4 2 3 2 1 4 3 4 3 6 9 10 9 10 8 10 12 11 12 13 14 15 13 13 13 14 14 12 13 12 14 14 13 13 16 15 14 14 15
12 6 2 1 5 5 0 2 3 1 3 7 5 4 3 2 1 3 7 5 12 11 9 10 9 9 10 10 11 12 14 14 13 13 14 12 13 13 12 12 13 13 14 13 15 15 14 15 14
6 5 4 2 2 6 3 1 1 5 6 2 4 1 1 2 3 7 2 12 12 10 9 11 10 9 9 9 10 12 13 13 13 13 13 12 13 12 12 11 13 12 13 14 15 14 13 13 13
5 1 3 6 7 2 4 3 2 8 3 2 1 3 3 1 3 6 8 13 12 10 9 12 10 10 10 8 9 12 13 14 13 12 12 13 11 12 11 10 13 12 13 14 14 14 13 12 12
4 1 6 6 7 3 5 2 5 7 3 4 4 3 2 5 3 7 11 12 12 11 9 12 10 10 9 8 10 11 12 13 13 11 11 12 11 10 11 10 11 11 12 12 12 13 12 11 11
1 1 7 11 12 9 5 1 5 9 4 4 4 4 3 4 6 8 11 12 11 10 9 10 10 10 8 7 6 8 11 12 13 11 10 10 10 9 9 9 10 10 11 11 12 10 10 9 10
2 2 7 10 11 9 4 3 5 8 6 5 2 4 3 7 7 9 11 11 10 9 9 9 10 10 6 6 4 5 10 12 12 11 9 10 8 8 8 8 9 10 10 11 10 9 8 8 9
1 2 5 7 9 11 1 3 3 7 5 2 3 4 3 9 10 10 11 10 9 9 9 9 9 9 8 8 4 5 11 11 11 10 10 9 9 9 8 6 7 9 10 9 8 8 8 8 9
1 6 8 9 7 4 0 5 3 0 3 4 4 2 4 13 13 12 10 11 9 8 9 9 9 9 8 7 6 7 9 10 9 10 10 10 7 8 9 7 7 8 8 8 7 7 8 9 8
5 5 7 2 4 5 5 4 1 5 7 7 6 4 4 14 14 16 13 13 11 11 10 9 9 9 9 7 9 9 10 9 9 8 10 6 8 6 5 6 6 6 6 6 7 7 7 6 4
3 8 4 3 3 2 4 4 2 5 7 10 10 9 10 14 14 15 14 13 14 12 9 10 10 9 10 8 7 5 5 5 6 8 8 6 6 7 6 5 6 6 6 5 5 5 3 4 3
7 5 4 2 3 2 1 6 5 7 6 4 6 5 14 15 16 17 16 15 14 14 13 12 11 10 11 7 7 8 6 6 6 7 8 6 5 6 6 5 6 6 5 5 4 3 4 4 4
7 4 4 2 7 6 5 8 8 11 10 4 2 7 13 15 16 15 14 13 13 14 14 13 12 12 11 11 8 8 8 8 8 8 8 7 7 7 6 5 5 5 5 5 4 4 4 4 5
3 4 5 5 6 5 6 9 3 3 3 6 6 8 10 14 15 13 14 15 16 15 15 14 14 13 12 11 12 9 8 9 8 8 8 10 8 7 7 6 6 6 6 6 5 5 5 5 5
1 7 7 8 4 6 4 11 13 15 6 8 9 8 8 11 13 17 15 16 15 14 14 15 16 14 15 15 12 10 9 9 9 9 10 10 10 9 8 7 7 7 6 7 5 6 5 5 5
4 5 10 5 7 5 6 18 7 10 11 14 14 10 9 11 13 14 16 17 15 14 14 15 13 15 17 14 12 10 10 9 9 9 9 12 11 11 9 7 7 7 6 6 6 6 6 6 6
8 14 10 4 5 1 11 13 6 6 12 15 14 12 10 10 11 13 15 14 15 16 15 14 16 16 16 15 12 12 12 10 10 9 9 12 13 12 10 8 8 8 7 7 7 7 7 6 7
10 9 6 7 2 3 9 16 16 8 8 11 9 10 11 13 13 10 13 14 15 16 17 16 14 17 17 12 12 10 10 10 10 10 10 14 12 14 12 9 9 8 8 8 8 9 7 7 6
9 12 11 3 1 4 10 13 20 13 15 17 16 18 18 17 14 11 11 12 14 16 17 19 18 18 13 12 11 11 11 11 11 11 14 15 14 15 14 10 10 10 10 10 10 9 9 7 6
10 12 9 2 2 4 9 15 23 19 19 19 19 20 20 19 15 15 14 13 16 18 19 19 20 19 15 11 11 11 11 12 12 11 13 16 16 16 14 14 12 13 10 11 11 10 8 8 8
17 16 9 6 6 11 11 21 21 20 15 18 18 20 20 20 18 18 16 17 17 18 19 19 21 21 19 18 11 10 9 9 10 12 12 14 17 17 16 17 14 13 11 10 12 12 14 9 8
20 12 8 4 7 8 2 10 15 16 14 15 15 14 16 17 16 18 17 17 17 18 16 19 18 21 18 21 16 18 13 13 12 12 12 12 18 18 16 16 16 14 11 13 13 12 13 12 10
11 11 9 8 10 5 12 7 9 5 11 14 16 16 16 15 15 15 16 16 16 14 15 17 18 20 21 20 21 16 18 13 11 10 15 16 15 18 17 17 17 15 12 14 15 14 15 12 11
13 9 6 2 3 8 12 14 12 12 8 4 7 12 13 11 10 11 11 11 13 12 13 15 17 19 20 20 23 23 22 19 13 14 12 11 11 11 17 16 15 15 14 15 14 15 17 14 13
11 10 5 6 5 9 3 9 16 16 10 12 12 15 14 9 10 11 14 13 13 14 13 13 16 18 20 22 22 22 22 22 21 18 13 13 11 11 14 17 16 14 15 15 13 13 15 14 14
16 7 4 5 5 4 2 11 6 10 13 10 11 15 15 12 9 11 12 12 14 14 14 14 15 18 19 20 22 20 22 15 15 17 13 12 12 12 15 14 15 17 16 15 14 11 11 13 13
8 12 6 2 3 6 8 16 18 18 17 14 16 9 9 9 9 11 11 11 13 14 13 13 14 16 16 18 17 19 18 20 17 18 16 12 14 11 14 15 15 16 15 15 15 11 13 13 13
6 11 6 4 5 7 9 13 13 9 15 7 10 6 4 6 8 9 10 11 10 11 10 9 11 14 14 14 15 14 17 18 17 15 17 17 15 16 14 15 15 14 15 15 15 12 13 12 11
5 7 2 3 4 4 5 8 3 10 9 5 5 6 6 11 12 10 11 12 11 10 9 8 8 10 12 12 13 15 14 16 16 15 15 15 15 14 14 15 15 15 15 15 14 14 14 13 13
11 10 9 6 7 4 4 13 4 8 5 4 5 10 9 8 10 11 13 14 11 10 9 7 7 8 8 10 11 12 13 13 14 14 15 13 12 14 14 14 14 15 15 14 13 13 12 13 12
Wind_Direction
327 324 306 256 241 255 247 133 308 170 166 87 106 221 3 3 315 16 91 121 148 143 141 151 130 137 130 125 131 131 128 122 120 116 116 112 109 105 109 110 100 101 91 109 98 95 94 92 88
327 313 257 302 259 248 163 113 230 151 96 129 128 142 180 101 60 83 144 162 157 146 149 143 130 129 131 135 141 142 133 127 122 119 114 117 114 109 109 120 113 106 103 103 105 96 96 91 85
324 308 301 319 274 258 295 66 79 121 131 183 146 328 95 106 139 157 141 151 157 148 151 129 131 133 138 140 146 147 136 130 124 125 119 112 113 106 119 125 113 104 105 110 103 99 98 90 84
348 266 152 259 262 282 296 28 117 149 196 218 245 151 162 357 148 174 154 158 162 153 155 137 134 142 147 146 142 146 142 135 130 128 122 121 116 121 120 128 125 116 107 106 104 103 97 93 86
15 310 261 251 264 286 271 309 190 187 183 176 198 150 127 150 123 140 165 166 164 160 159 153 143 138 142 157 154 156 148 143 132 129 128 120 122 120 122 123 116 112 107 108 111 111 106 99 89
265 155 256 256 262 266 260 213 191 201 177 149 211 171 141 139 156 160 175 172 167 165 169 152 150 145 144 153 163 172 160 142 134 133 132 127 122 120 121 123 122 121 117 113 108 111 116 109 94
101 279 272 285 274 282 286 131 214 196 187 200 146 206 121 183 178 166 179 171 169 166 177 168 163 151 147 157 187 184 161 136 129 132 127 118 109 105 108 118 125 126 117 112 113 110 114 121 98
329 191 246 254 271 281 117 191 310 211 193 82 213 214 164 173 162 171 171 174 172 175 180 179 172 172 179 172 184 198 145 136 134 131 121 116 112 104 99 115 122 126 123 123 113 105 99 119 110
135 227 242 265 261 283 134 230 144 43 199 216 207 285 75 144 154 166 170 182 178 188 184 186 181 181 171 173 140 143 135 135 133 134 130 150 152 157 168 70 117 129 132 129 119 109 103 111 102
237 252 216 231 295 296 315 276 242 211 197 214 217 194 147 157 167 173 181 185 191 193 194 185 187 182 170 166 168 175 161 171 174 170 169 167 161 156 153 122 114 111 117 117 117 121 132 198 150
181 248 199 181 258 288 313 275 290 245 226 231 220 194 167 177 183 188 194 195 193 191 195 197 190 187 185 177 180 185 184 186 183 178 175 170 163 165 177 158 165 166 191 176 173 166 181 156 166
231 227 231 203 182 239 264 316 270 240 259 357 247 187 169 186 195 199 202 200 198 195 202 191 200 195 192 189 194 191 194 191 189 190 186 179 183 184 183 188 181 188 190 178 192 179 179 181 181
230 225 207 248 275 261 270 262 280 273 267 254 300 187 193 197 202 206 210 209 205 207 197 199 200 208 202 198 198 197 200 198 198 193 194 196 194 191 190 194 193 192 189 194 194 197 190 189 195
189 221 259 266 255 274 256 254 238 252 318 237 237 230 214 210 206 204 211 213 212 208 206 199 198 208 207 212 203 203 203 201 204 205 201 203 201 196 195 196 203 205 203 197 203 200 203 208 208
195 256 244 226 225 243 233 247 234 246 243 265 251 253 242 222 210 212 209 218 218 215 210 207 201 197 212 213 213 208 207 209 206 207 208 205 208 203 200 199 203 210 208 213 210 204 213 224 216
221 244 245 140 197 202 217 264 239 232 229 248 256 253 245 237 227 225 219 216 218 222 217 213 207 200 209 210 214 216 211 207 213 210 205 206 209 208 205 210 213 205 207 214 217 212 216 224 224
207 245 232 255 196 199 212 272 280 243 235 250 253 254 255 260 232 227 230 225 218 218 221 220 213 211 210 213 214 218 222 214 212 211 209 206 209 213 219 216 216 206 211 216 221 222 229 222 225
214 235 238 243 110 196 248 260 261 239 271 263 268 260 261 258 256 243 231 225 225 221 221 222 216 218 212 214 216 219 221 222 218 215 213 212 212 212 215 221 220 213 217 222 217 225 218 239 238
264 230 241 215 105 270 260 269 274 279 272 268 262 264 261 259 258 252 226 221 221 225 224 223 215 216 212 212 209 215 216 218 215 217 217 216 217 212 215 218 220 218 223 225 222 220 228 221 221
212 222 225 230 202 273 288 279 282 272 266 264 262 260 259 259 252 249 236 218 217 218 221 224 221 218 212 213 210 217 214 226 221 213 214 215 215 213 213 217 221 220 222 224 221 215 216 233 204
214 223 202 259 292 265 298 277 264 264 250 259 255 257 263 260 255 249 242 232 225 223 219 218 220 219 210 210 214 217 232 231 225 221 220 216 217 214 210 214 217 216 214 217 216 216 216 223 212
219 216 227 273 289 268 6 292 270 269 260 250 255 251 253 257 252 255 255 248 238 234 225 222 218 220 218 204 204 207 212 222 225 224 224 221 216 216 213 216 214 216 211 216 217 216 220 223 227
221 175 194 230 252 298 240 261 261 241 256 263 261 259 258 257 260 258 254 255 259 250 236 229 223 220 218 214 210 208 215 227 226 225 231 223 218 218 215 212 214 216 217 221 220 215 217 219 226
135 115 96 145 215 251 248 221 258 255 256 226 262 272 271 274 277 273 279 280 266 258 243 235 230 225 222 215 217 216 215 221 221 223 223 225 224 217 221 218 217 215 217 219 220 221 219 219 224
174 151 177 190 202 252 59 234 256 278 262 248 259 278 287 287 301 302 295 291 286 273 250 237 232 232 224 221 218 219 222 221 220 221 220 220 221 221 221 217 217 220 224 226 222 220 224 220 226
182 182 202 215 215 272 128 243 249 270 281 277 266 263 283 308 316 298 312 310 298 288 271 249 237 236 229 225 225 222 223 226 226 225 220 222 223 221 223 219 220 223 224 225 224 225 228 226 228
173 206 245 304 101 266 242 260 277 268 278 259 267 272 295 300 330 333 325 315 308 296 288 271 252 244 238 232 229 227 224 226 228 226 224 220 225 229 227 223 222 227 227 227 226 226 228 224 231
197 145 148 176 209 244 255 271 249 280 281 349 2 21 13 1 346 344 329 317 308 302 296 284 265 259 253 242 234 234 233 233 231 231 228 229 219 215 219 220 220 224 228 226 225 227 231 229 227
136 175 116 132 221 250 287 260 253 251 271 43 36 350 9 329 330 332 317 314 310 304 297 296 280 264 254 246 236 230 231 232 235 234 231 233 237 228 214 213 213 220 224 224 224 224 226 224 229
179 190 171 189 177 237 296 258 187 321 93 129 317 318 322 306 314 315 309 313 315 317 310 301 292 272 258 257 246 237 234 233 233 234 236 234 232 234 226 221 218 219 220 224 221 224 226 229 227